Date,TemperatureHighF,TemperatureAvgF,TemperatureLowF,DewpointHighF,DewpointAvgF,DewpointLowF,HumidityHigh,HumidityAvg,HumidityLow,PressureMaxIn,PressureMinIn,WindSpeedMaxMPH,WindSpeedAvgMPH,GustSpeedMaxMPH,PrecipitationSumIn
2014-1-1,51.8,37.4,27.9,29.1,21.4,14.9,90,58,24,30.39,30.13,8,1,9,0.00
2014-1-2,47.7,42.4,36.3,45.5,34.7,24.8,98,76,45,30.13,29.57,10,1,10,0.29
2014-1-3,41.5,28.9,19.2,39.2,5.7,-1.8,91,38,24,30.45,29.62,19,4,19,0.00
2014-1-4,37.8,28.8,15.3,14.7,7.1,2.5,71,42,26,30.48,30.25,8,1,8,0.00
2014-1-5,59.5,47.8,36.3,57.2,36.0,14.5,98,66,40,30.25,29.74,9,2,9,0.00
2014-1-6,61.5,44.9,16.5,59.2,30.3,-10.8,98,62,26,30.16,29.62,19,5,19,0.13
2014-1-7,26.2,15.4,7.7,-3.5,-10.5,-17.9,45,31,24,30.48,30.16,12,3,12,0.00
2014-1-8,45.3,25.3,10.8,9.9,1.1,-6.3,78,36,22,30.57,30.45,8,1,8,0.00
2014-1-9,56.1,36.8,22.8,17.6,11.0,4.6,56,36,20,30.57,30.45,8,1,8,0.00
2014-1-10,59.7,43.7,38.7,59.2,35.6,17.1,98,76,38,30.45,30.07,8,1,8,0.75
2014-1-11,68.9,58.8,51.6,66.0,57.4,50.4,98,95,75,30.07,29.57,23,3,23,0.25
2014-1-12,60.1,47.3,34.0,51.4,27.6,20.1,92,50,24,30.16,29.65,16,2,16,0.00
2014-1-13,62.1,45.9,30.6,37.6,28.6,24.3,98,58,25,30.16,29.95,13,1,13,0.00
2014-1-14,55.9,47.4,35.1,51.6,44.2,31.8,98,90,46,29.95,29.77,8,1,8,0.29
2014-1-15,61.7,44.8,34.9,52.2,33.8,20.7,98,72,28,29.98,29.80,15,2,15,0.00
2014-1-16,47.7,35.5,26.6,34.7,25.9,14.9,98,72,29,30.01,29.89,13,2,13,0.04
2014-1-17,57.2,40.2,25.9,30.4,22.9,13.5,98,57,25,30.01,29.83,11,2,11,0.00
2014-1-18,46.8,32.6,23.5,31.1,9.9,2.5,64,39,26,30.01,29.80,15,3,15,0.00
2014-1-19,54.5,38.8,28.6,19.6,14.2,7.7,59,37,25,30.01,29.86,17,2,17,0.00
2014-1-20,65.7,44.5,29.8,22.8,18.9,14.4,70,39,18,29.89,29.74,13,2,13,0.00
2014-1-21,55.0,37.3,25.0,30.2,22.9,18.5,91,59,28,29.80,29.51,15,3,15,0.00
2014-1-22,32.5,23.4,13.8,19.8,6.0,-3.3,81,50,25,30.07,29.80,11,3,12,0.00
2014-1-23,39.2,24.9,12.6,7.2,1.6,-9.0,57,38,23,30.42,30.07,13,2,13,0.00
2014-1-24,30.7,17.7,9.5,-2.7,-9.0,-14.4,35,29,23,30.57,30.22,15,3,15,0.00
2014-1-25,41.4,28.9,14.2,7.7,-0.4,-9.0,34,28,23,30.22,29.62,20,5,20,0.00
2014-1-26,53.2,38.1,21.2,16.3,10.3,5.7,59,33,21,29.95,29.77,15,2,15,0.00
2014-1-27,66.7,48.4,32.5,27.0,19.3,0.5,48,32,22,30.10,29.74,17,4,17,0.00
2014-1-28,32.4,25.6,16.0,11.5,-0.3,-6.2,80,36,23,30.30,30.10,13,4,13,0.00
2014-1-29,30.2,19.9,10.2,10.9,2.1,-7.6,79,48,28,30.33,30.16,11,2,11,0.00
2014-1-30,43.5,20.9,3.9,7.5,-2.6,-13.2,70,37,21,30.39,30.22,10,1,10,0.08
2014-1-31,56.5,30.9,12.0,15.8,7.6,1.6,78,41,20,30.22,30.10,6,1,8,0.00
2014-2-1,60.8,40.5,23.2,43.0,20.3,9.1,98,51,19,30.25,30.07,9,1,9,0.00
2014-2-2,66.2,51.0,40.5,46.9,40.2,32.5,98,72,31,30.07,30.01,15,2,15,0.00
2014-2-3,62.4,49.1,39.4,61.2,44.9,30.2,98,86,67,30.25,29.89,19,3,19,0.13
2014-2-4,39.4,38.3,37.0,38.1,33.1,28.0,98,82,65,30.39,30.07,10,2,10,0.46
2014-2-5,52.2,42.5,37.6,49.8,39.6,19.9,98,91,43,30.07,29.77,13,2,13,0.08
2014-2-6,43.5,36.7,29.7,20.5,14.8,11.1,52,41,29,30.30,30.04,15,2,15,0.00
2014-2-7,54.9,39.7,32.9,28.4,22.2,15.8,80,53,26,30.33,30.22,10,1,10,0.00
2014-2-8,52.0,38.8,30.4,28.4,20.1,15.6,80,49,27,30.27,30.10,8,1,8,0.00
2014-2-9,55.9,39.8,27.7,33.6,27.3,22.1,97,64,30,30.16,29.95,16,1,16,0.00
2014-2-10,41.0,37.0,34.0,34.3,27.7,16.5,98,72,38,30.22,29.98,11,1,11,0.04
2014-2-11,34.3,30.5,25.0,33.8,13.9,4.5,98,54,33,30.39,30.22,11,2,11,0.00
2014-2-12,32.0,24.9,22.6,31.5,12.8,1.9,98,63,34,30.39,29.74,14,4,14,0.00
2014-2-13,34.5,33.2,32.0,33.8,32.6,31.1,98,98,90,29.74,29.39,9,2,9,0.13
2014-2-14,60.3,42.4,28.0,31.3,21.4,15.3,90,48,19,29.77,29.62,15,3,15,0.33
2014-2-15,48.2,38.7,29.1,40.6,26.3,4.6,98,68,28,30.01,29.54,15,2,15,0.25
2014-2-16,52.5,38.2,28.0,20.3,13.7,5.9,59,37,26,30.16,29.98,13,2,13,0.00
2014-2-17,48.2,36.9,28.2,17.8,13.4,9.5,54,39,27,30.36,30.16,13,3,13,0.00
2014-2-18,68.0,46.7,34.9,26.6,20.5,11.7,68,39,17,30.19,30.07,12,2,12,0.00
2014-2-19,71.2,56.0,41.9,58.6,46.2,18.7,98,74,38,30.07,29.86,17,2,17,0.37
2014-2-20,70.9,59.2,50.0,56.3,37.3,20.7,98,48,25,30.22,29.98,15,3,15,0.00
2014-2-21,72.5,59.7,41.4,59.4,52.0,39.4,96,77,46,30.01,29.77,23,4,23,0.37
2014-2-22,68.2,49.3,36.9,39.9,22.2,15.8,96,39,17,30.19,30.01,8,1,8,0.00
2014-2-23,69.6,50.8,32.5,38.1,26.7,20.5,88,45,20,30.10,29.86,15,2,15,0.00
2014-2-24,63.0,50.1,35.2,35.1,19.6,6.3,56,32,18,30.13,29.86,18,3,18,0.00
2014-2-25,54.0,39.1,28.0,19.0,13.1,7.0,46,35,23,30.13,29.95,11,1,11,0.00
2014-2-26,51.3,38.3,29.7,20.3,14.4,5.0,53,38,26,29.95,29.77,11,2,11,0.00
2014-2-27,56.7,37.3,21.2,16.0,7.9,1.8,53,31,20,30.01,29.71,14,3,19,0.00
2014-2-28,47.7,34.2,25.5,10.6,4.2,-2.7,36,28,22,30.30,30.01,14,3,14,0.00
2014-3-1,59.4,39.4,28.6,28.6,14.4,2.1,78,38,25,30.33,30.19,9,2,9,0.00
2014-3-2,72.7,53.2,32.0,42.8,31.5,27.9,98,52,22,30.22,29.86,15,3,15,0.00
2014-3-3,62.1,37.6,18.5,42.3,27.3,2.8,93,69,36,30.27,29.80,17,4,17,0.29
2014-3-4,40.3,27.1,14.5,9.3,3.1,-2.6,52,36,26,30.33,30.19,11,3,11,0.08
2014-3-5,45.9,35.7,29.7,13.1,8.3,3.6,44,32,25,30.27,30.10,9,2,9,0.00
2014-3-6,41.9,34.6,29.7,32.0,16.8,3.7,97,52,31,30.36,30.10,10,4,14,0.46
2014-3-7,36.0,34.2,31.6,35.4,33.2,30.6,98,96,88,30.10,29.83,18,4,18,1.41
2014-3-8,69.6,47.5,28.0,38.8,30.7,26.1,98,61,22,30.04,29.92,13,2,13,0.00
2014-3-9,68.7,53.0,41.0,39.7,30.1,22.5,82,46,20,30.04,29.95,12,2,12,0.00
2014-3-10,75.2,53.6,32.0,41.7,25.9,19.2,97,43,15,30.01,29.77,13,2,13,0.00
2014-3-11,82.6,62.6,42.3,33.1,27.8,23.2,58,29,14,29.77,29.62,11,2,11,0.00
2014-3-12,70.3,59.2,42.8,56.8,40.2,18.9,93,50,35,29.68,29.21,17,4,21,0.21
2014-3-13,46.9,37.5,26.4,18.7,7.4,0.7,43,29,20,30.19,29.57,21,4,21,0.00
2014-3-14,63.0,42.6,22.1,21.9,13.5,6.3,72,35,18,30.30,30.07,15,3,15,0.00
2014-3-15,73.8,58.8,48.6,29.3,26.3,21.9,41,30,17,30.07,29.89,17,4,17,0.00
2014-3-16,56.3,46.9,36.5,40.1,27.2,17.1,98,51,26,30.04,29.86,13,3,13,0.17
2014-3-17,36.3,32.8,31.1,35.8,31.3,28.6,98,94,88,29.98,29.83,13,3,13,0.41
2014-3-18,37.0,33.7,30.2,36.5,32.9,29.1,98,97,94,30.22,29.92,12,1,12,0.25
2014-3-19,47.5,41.1,35.1,46.8,39.7,34.5,98,95,85,30.25,30.07,11,2,11,0.08
2014-3-20,68.7,52.9,42.1,48.9,30.4,15.1,98,53,17,30.25,29.98,15,3,15,0.00
2014-3-21,70.9,51.6,30.0,31.8,21.0,12.6,80,34,17,30.84,30.22,12,2,12,0.00
2014-3-22,75.6,59.2,43.9,37.9,28.6,20.7,72,34,18,31.49,29.92,18,-5,18,0.00
2014-3-23,56.3,46.8,37.0,39.7,32.6,21.2,97,63,27,30.16,29.92,13,2,13,0.13
2014-3-24,52.5,39.7,30.0,37.8,18.1,8.8,98,47,21,30.27,30.10,11,2,11,0.00
2014-3-25,46.4,38.7,30.9,34.3,23.7,13.3,93,58,31,30.10,29.74,13,2,13,0.04
2014-3-26,49.5,36.0,27.3,29.1,11.0,3.0,98,40,21,30.33,29.92,16,3,16,0.00
2014-3-27,60.8,41.6,21.9,21.9,11.5,5.5,54,31,19,30.45,30.27,15,2,15,0.00
2014-3-28,69.3,55.1,41.2,59.4,43.0,21.9,98,67,36,30.27,30.10,22,2,22,0.17
2014-3-29,65.1,61.1,57.2,64.6,60.5,56.7,98,98,93,30.13,29.57,15,1,15,1.54
2014-3-30,62.6,47.7,40.3,62.1,30.4,20.5,98,54,31,29.92,29.54,22,4,22,0.13
2014-3-31,74.8,54.1,38.7,25.0,20.4,16.3,43,29,16,30.10,29.92,15,3,15,0.00
2014-4-1,82.4,58.7,38.8,32.9,26.6,23.0,60,34,14,30.16,29.98,10,1,10,0.00
2014-4-2,88.7,67.1,46.6,36.0,30.8,25.7,54,30,13,30.10,29.98,12,2,12,0.00
2014-4-3,79.9,63.1,48.2,45.0,38.1,31.5,76,42,22,30.07,29.92,10,2,10,0.00
2014-4-4,84.4,69.0,53.8,52.7,42.1,31.6,84,42,16,29.92,29.71,21,3,21,0.00
2014-4-5,73.8,64.1,55.2,42.3,30.7,19.8,56,30,17,30.07,29.77,14,3,14,0.00
2014-4-6,62.1,53.2,43.3,28.2,22.8,18.0,40,31,24,30.22,30.07,10,4,14,0.00
2014-4-7,62.6,50.9,43.3,61.9,45.7,19.8,98,87,28,30.13,29.65,10,2,10,1.28
2014-4-8,71.1,62.8,51.8,62.6,45.9,29.8,98,60,23,29.68,29.57,15,2,15,0.00
2014-4-9,70.9,56.9,47.8,46.6,32.7,23.9,90,44,20,30.10,29.68,15,2,15,0.00
2014-4-10,75.9,58.2,38.3,49.1,31.1,23.5,97,44,15,30.27,30.10,15,2,15,0.00
2014-4-11,79.5,65.4,48.7,39.4,33.3,29.8,60,33,17,30.22,30.04,21,3,21,0.00
2014-4-12,84.9,68.7,53.6,48.6,39.0,32.4,74,38,18,30.22,30.10,11,2,11,0.00
2014-4-13,82.8,68.9,54.3,57.4,45.1,37.9,95,47,22,30.22,30.07,13,2,13,0.00
2014-4-14,79.0,67.0,58.5,64.9,52.1,42.3,96,63,28,30.13,29.86,15,3,15,0.00
2014-4-15,69.8,61.3,40.5,67.6,56.6,29.3,98,85,46,30.01,29.60,21,4,21,1.20
2014-4-16,59.4,43.5,32.2,28.9,18.6,11.1,63,39,22,30.48,30.01,11,3,16,0.00
2014-4-17,68.7,48.6,31.8,32.7,26.5,20.8,84,47,22,30.57,30.42,13,2,13,0.00
2014-4-18,66.0,50.3,37.6,47.3,32.7,25.5,93,56,25,30.48,30.25,10,2,10,0.04
2014-4-19,53.1,49.5,45.5,48.9,43.8,34.7,98,83,52,30.25,30.16,11,2,11,0.54
2014-4-20,71.1,57.9,48.9,35.6,29.0,22.1,55,34,24,30.27,30.19,17,4,17,0.00
2014-4-21,80.2,57.1,40.6,32.5,26.7,22.1,55,34,15,30.22,29.92,12,2,12,0.00
2014-4-22,84.6,64.2,45.9,48.7,38.8,29.3,84,45,18,29.92,29.65,13,2,13,0.00
2014-4-23,74.8,62.4,52.9,54.9,33.3,20.1,94,42,16,29.98,29.68,15,2,15,0.00
2014-4-24,75.0,56.5,39.0,35.8,27.0,19.9,76,36,16,30.16,29.98,11,1,11,0.00
2014-4-25,81.0,60.6,47.1,66.7,47.8,31.8,95,66,34,30.01,29.65,27,2,27,0.12
2014-4-29,64.8,57.9,52.2,63.0,56.3,51.6,98,94,81,30.04,29.92,8,1,8,0.04
2014-4-30,77.0,70.5,63.5,73.0,67.4,60.4,98,90,66,30.04,29.89,15,2,15,0.87
2014-5-1,80.8,71.5,65.3,69.1,57.1,43.7,97,65,30,29.92,29.77,14,3,14,0.00
2014-5-2,72.1,61.4,52.7,59.4,37.5,25.5,96,46,22,29.95,29.83,10,1,10,0.00
2014-5-3,79.2,63.5,52.3,52.7,39.9,29.3,91,49,20,29.92,29.83,15,2,15,0.00
2014-5-4,86.0,67.3,51.1,47.3,39.2,31.1,78,41,18,29.98,29.80,15,2,15,0.00
2014-5-5,75.7,62.8,54.5,51.8,42.5,36.0,83,50,26,30.04,29.86,8,1,8,0.00
2014-5-6,87.1,67.6,55.6,55.4,48.8,41.0,85,55,22,30.01,29.86,10,1,10,0.00
2014-5-7,82.2,66.3,55.8,63.7,57.1,51.3,98,75,36,30.16,30.01,6,1,6,0.00
2014-5-8,92.5,73.9,58.3,68.2,50.4,37.8,98,55,17,30.19,30.07,14,2,14,0.00
2014-5-9,91.2,74.6,58.5,63.7,51.9,40.6,97,52,18,30.16,30.01,15,2,15,0.00
2014-5-10,87.6,73.5,64.2,64.0,55.2,42.1,94,57,29,30.13,29.98,18,2,18,0.00
2014-5-11,90.7,72.7,61.0,62.2,51.5,38.5,94,54,18,30.16,30.04,9,1,9,0.00
2014-5-12,95.0,74.4,58.1,62.8,53.5,40.6,98,58,17,30.19,30.10,9,1,9,0.00
2014-5-13,96.4,77.8,63.5,70.5,57.2,43.5,98,58,18,30.16,30.07,9,1,9,0.00
2014-5-14,91.8,77.7,65.8,68.7,56.9,45.7,98,55,22,30.19,30.07,13,2,13,0.00
2014-5-15,79.5,70.1,65.1,70.3,65.1,55.9,98,86,50,30.13,29.86,15,2,15,4.32
2014-5-16,76.3,65.3,56.7,69.1,49.2,33.4,98,63,23,30.01,29.83,13,2,13,0.37
2014-5-17,74.1,60.3,46.4,50.2,35.9,26.8,77,44,21,30.19,30.01,13,2,13,0.00
2014-5-18,71.6,59.3,49.1,47.5,39.1,28.8,90,52,23,30.22,30.16,10,1,10,0.00
2014-5-19,78.3,60.0,46.9,52.9,38.8,27.1,98,56,18,30.30,30.22,8,1,8,0.00
2014-5-20,81.9,64.4,47.3,54.5,44.7,37.6,98,56,23,30.27,30.10,14,2,14,0.00
2014-5-21,88.9,74.0,61.9,57.2,50.9,43.0,72,48,22,30.10,29.92,13,2,13,0.00
2014-5-22,91.8,77.0,65.1,62.6,53.2,43.5,90,49,20,29.95,29.86,12,2,12,0.00
2014-5-23,84.9,73.1,64.4,61.7,50.8,37.4,87,50,23,30.04,29.92,11,1,11,0.00
2014-5-24,83.7,68.3,55.0,50.0,39.3,33.3,71,38,19,30.13,30.01,11,2,11,0.00
2014-5-25,85.8,69.4,55.9,59.2,47.6,36.1,95,54,20,30.19,30.13,9,1,9,0.00
2014-5-26,89.4,73.0,58.6,64.9,53.9,44.8,98,58,23,30.22,30.07,12,2,12,0.00
2014-5-27,91.8,75.3,67.8,69.1,61.9,51.3,98,69,26,30.10,29.95,13,2,13,0.20
2014-5-28,92.8,77.5,66.2,70.9,61.3,48.4,98,65,26,30.01,29.92,9,1,9,0.00
2014-5-29,73.8,68.6,65.7,66.7,62.6,56.1,98,82,57,30.13,29.98,8,1,8,0.04
2014-5-30,74.7,68.3,62.8,65.7,62.5,56.1,98,83,55,30.16,30.07,6,1,6,0.00
2014-5-31,87.3,70.9,61.0,65.7,51.8,37.9,98,60,20,30.25,30.13,9,1,9,0.00
2014-6-1,83.8,66.4,52.5,56.1,43.7,33.8,98,52,19,30.36,30.25,9,1,9,0.00
2014-6-2,86.7,66.3,49.5,54.1,45.3,37.0,96,54,19,30.30,30.13,10,1,10,0.00
2014-6-3,89.6,71.2,55.2,66.9,54.7,44.2,98,63,25,30.13,29.92,12,1,12,0.00
2014-6-4,94.8,76.0,64.6,71.4,63.0,45.1,98,72,20,29.92,29.77,17,1,17,0.04
2014-6-5,93.0,80.6,71.1,70.7,60.9,47.3,95,56,23,29.86,29.71,12,2,12,0.00
2014-6-6,89.1,75.2,65.7,69.6,57.5,46.0,97,60,25,29.98,29.83,8,1,8,0.00
2014-6-7,88.9,72.8,60.4,66.7,55.7,42.3,98,63,21,30.04,29.95,6,1,6,0.00
2014-6-8,87.3,74.7,63.0,66.0,54.5,46.6,98,55,28,30.01,29.89,12,2,15,0.00
2014-6-9,91.2,77.7,69.1,71.6,59.7,49.6,98,56,32,29.92,29.86,13,1,13,0.25
2014-6-10,96.4,79.3,68.4,74.1,64.6,50.9,98,69,24,29.95,29.89,9,1,9,0.12
2014-6-11,94.5,76.9,68.5,73.0,64.8,51.4,98,74,27,29.98,29.86,15,1,15,0.50
2014-6-12,87.4,74.8,68.5,73.9,67.8,57.9,98,82,39,29.95,29.83,6,0,6,0.54
2014-6-13,88.7,74.2,66.7,73.4,65.3,53.4,98,78,33,29.89,29.80,13,1,13,0.33
2014-6-14,89.8,74.4,61.5,69.1,56.6,36.0,98,62,19,30.07,29.89,11,1,11,0.00
2014-6-15,91.6,74.5,61.0,67.1,57.4,49.3,95,61,27,30.19,30.07,7,-3,7,0.00
2014-6-16,99.3,80.9,68.2,72.5,61.0,46.4,98,59,18,30.19,30.07,11,2,11,0.00
2014-6-17,96.8,82.0,72.7,68.2,61.1,54.7,83,52,27,30.16,30.07,9,2,9,0.00
2014-6-18,99.0,83.3,71.4,65.8,59.7,47.7,80,49,20,30.13,30.04,11,2,11,0.00
2014-6-19,101.1,84.3,70.9,71.8,60.0,48.6,98,51,18,30.10,29.98,22,2,22,0.46
2014-6-20,94.3,78.2,69.1,73.4,65.2,54.9,98,70,29,30.04,29.92,12,1,12,0.29
2014-6-21,95.4,78.4,68.9,73.8,66.3,54.1,98,72,27,29.95,29.80,8,1,8,0.08
2014-6-22,87.1,74.2,68.7,72.7,67.0,57.4,98,81,39,30.01,29.83,9,1,9,0.00
2014-6-23,90.3,75.1,64.0,66.6,57.7,46.9,98,61,24,30.16,30.01,9,1,9,0.00
2014-6-24,88.9,76.3,64.2,69.1,60.5,52.0,98,63,30,30.16,30.04,8,1,8,0.00
2014-6-25,93.4,79.8,73.0,75.7,66.8,53.8,98,70,28,30.04,29.89,11,2,11,0.13
2014-6-26,96.8,81.2,70.5,72.5,62.8,46.8,98,62,20,30.01,29.92,9,1,9,0.00
2014-6-27,88.0,75.6,70.0,73.0,68.2,59.0,98,81,41,30.13,30.01,8,1,8,0.54
2014-6-28,90.3,76.6,67.1,72.9,62.7,51.8,98,68,30,30.25,30.13,8,1,8,0.00
2014-6-29,90.7,73.5,60.3,59.2,52.4,40.6,87,54,20,30.25,30.13,9,1,9,0.00
2014-6-30,94.5,77.5,63.9,66.9,57.5,48.4,98,56,22,30.16,29.98,8,1,8,0.00
2014-7-1,95.2,80.8,70.0,66.4,60.2,53.8,86,53,27,30.01,29.89,11,1,11,0.00
2014-7-2,98.8,84.8,73.6,68.2,61.1,54.5,81,49,26,29.98,29.92,15,2,15,0.00
2014-7-3,93.0,79.3,72.9,75.0,69.0,57.9,97,73,32,30.04,29.86,15,2,15,0.83
2014-7-4,91.2,77.4,68.2,68.4,55.8,42.8,86,52,21,30.19,29.86,14,3,14,0.00
2014-7-5,88.9,72.2,60.3,52.5,42.5,35.2,70,38,18,30.30,30.19,8,1,8,0.00
2014-7-6,91.2,73.5,58.1,64.9,51.3,40.1,98,54,18,30.22,30.04,9,1,9,0.00
2014-7-7,95.7,79.6,67.1,69.6,57.7,43.3,96,54,19,30.07,29.92,11,2,11,0.00
2014-7-8,98.1,84.5,72.3,67.8,55.5,40.8,84,44,16,30.04,29.86,13,3,13,0.00
2014-7-9,95.2,80.9,71.8,71.8,59.7,51.3,94,51,27,30.04,29.92,17,2,17,0.00
2014-7-10,86.0,75.4,70.5,73.2,68.8,60.4,98,82,47,30.13,30.01,13,1,13,0.00
2014-7-11,91.4,76.5,69.1,71.4,64.0,52.0,98,71,28,30.22,30.13,7,1,7,0.00
2014-7-12,95.2,78.4,65.7,73.6,60.6,46.4,98,63,20,30.25,30.13,8,1,8,0.00
2014-7-13,95.9,81.6,69.6,74.1,60.8,44.8,98,58,19,30.16,30.01,10,2,10,0.00
2014-7-14,95.9,81.9,74.8,79.0,66.2,55.2,93,62,28,30.04,29.86,11,2,11,0.17
2014-7-15,91.8,78.0,68.2,73.6,68.4,54.1,98,75,35,29.89,29.77,12,2,12,3.28
2014-7-16,85.5,73.2,65.7,72.5,62.8,46.8,98,75,30,29.95,29.80,8,1,8,0.00
2014-7-17,88.7,72.6,59.2,64.4,54.5,41.0,98,61,20,30.13,29.95,8,1,8,0.00
2014-7-18,91.2,75.3,64.6,67.8,53.2,39.6,98,54,18,30.22,30.10,9,1,9,0.00
2014-7-19,85.8,73.2,66.0,60.6,54.5,41.5,79,55,23,30.19,30.10,10,1,10,0.00
2014-7-20,84.6,74.1,68.7,71.2,64.5,58.1,89,73,42,30.16,30.07,6,0,6,0.08
2014-7-21,79.5,74.5,71.2,75.6,72.0,68.5,98,92,79,30.19,30.07,6,0,6,0.04
2014-7-22,88.3,77.4,70.7,73.2,68.5,58.8,98,77,39,30.19,30.10,7,0,7,0.00
2014-7-23,95.0,80.8,71.6,76.6,66.4,54.9,98,68,28,30.13,29.92,10,2,10,0.00
2014-7-24,92.3,77.5,68.0,73.9,68.4,55.4,98,77,31,29.98,29.83,8,1,8,0.74
2014-7-25,86.7,74.3,66.2,72.0,62.9,49.5,98,74,31,30.07,29.98,8,1,8,0.00
2014-7-26,92.5,77.8,68.2,74.3,66.0,54.1,98,73,29,30.04,29.95,8,1,8,0.00
2014-7-27,87.4,76.3,70.5,74.3,70.4,64.2,98,84,48,30.01,29.77,9,0,9,0.71
2014-7-28,91.4,80.1,69.1,73.0,53.8,43.0,92,44,20,29.89,29.71,13,3,13,0.00
2014-7-29,88.0,72.6,62.4,62.2,50.8,38.8,89,51,20,30.01,29.86,8,1,8,0.00
2014-7-30,85.8,71.4,62.8,66.9,58.2,48.6,96,67,32,30.10,29.98,7,1,7,0.00
2014-7-31,83.3,73.5,65.1,70.0,63.3,52.2,98,74,37,30.16,30.10,7,0,7,0.00
2014-8-1,76.1,69.1,64.2,70.5,66.7,61.9,98,93,66,30.16,30.07,10,1,10,0.50
2014-8-2,69.6,67.3,64.8,69.1,66.5,64.0,98,97,89,30.13,30.07,6,0,6,0.70
2014-8-3,82.2,71.0,67.1,70.0,66.5,59.0,98,87,47,30.16,30.07,6,0,6,0.00
2014-8-4,90.7,74.8,66.0,71.6,63.8,51.4,98,75,29,30.13,30.04,8,1,8,0.00
2014-8-5,92.7,77.2,67.8,73.6,63.5,50.4,98,70,25,30.07,29.98,7,1,7,0.00
2014-8-6,93.6,79.0,69.1,70.9,60.8,43.7,98,62,19,30.01,29.92,11,1,11,0.00
2014-8-7,90.1,77.4,67.8,69.1,61.8,52.2,98,64,28,30.04,29.92,8,1,8,0.00
2014-8-8,83.5,74.5,67.6,71.1,63.1,51.6,98,72,35,30.16,30.04,5,0,5,0.00
2014-8-9,72.3,67.3,63.5,68.7,65.7,62.6,98,95,77,30.16,30.07,6,0,6,0.42
2014-8-10,83.3,72.3,65.3,70.5,63.7,55.2,98,78,40,30.13,30.07,8,0,8,0.50
2014-8-11,87.1,74.9,69.3,72.3,64.6,54.0,98,74,34,30.10,29.98,9,1,9,0.04
2014-8-12,89.6,75.5,69.1,73.8,68.0,59.2,98,82,38,30.01,29.80,11,1,11,0.70
2014-8-13,85.5,74.5,65.5,71.8,60.0,46.8,98,68,27,29.98,29.80,12,1,12,0.00
2014-8-14,88.0,71.4,59.4,62.2,51.7,37.4,98,59,19,30.07,29.95,9,1,9,0.00
2014-8-15,91.4,74.2,61.3,68.2,58.3,47.1,98,65,27,30.04,29.95,7,1,7,0.00
2014-8-16,94.1,78.1,68.0,69.8,60.8,47.5,98,63,22,30.04,29.98,8,1,8,0.00
2014-8-17,93.4,78.2,69.3,72.5,62.8,47.7,98,67,24,30.01,29.95,10,1,10,0.00
2014-8-18,89.4,76.7,71.1,74.1,69.1,58.3,98,80,37,29.95,29.80,6,0,6,0.17
2014-8-19,93.0,77.6,69.4,75.0,67.4,54.1,98,76,29,29.92,29.77,9,1,9,0.00
2014-8-20,95.4,77.7,70.5,73.0,67.3,55.2,98,76,27,30.04,29.89,6,1,6,0.00
2014-8-21,94.8,80.5,70.5,74.3,65.4,50.5,98,67,23,30.07,29.98,11,1,11,0.00
2014-8-22,92.7,80.2,71.4,75.7,67.3,53.2,98,70,29,30.04,29.95,14,1,14,0.00
2014-8-23,88.2,77.9,71.2,74.1,68.6,59.5,98,76,40,30.01,29.92,7,1,7,0.00
2014-8-24,84.6,73.3,63.1,70.0,59.4,48.2,95,66,31,30.13,29.98,10,2,10,0.00
2014-8-25,82.4,68.9,59.2,63.0,56.7,48.4,98,70,35,30.13,30.10,10,1,10,0.00
2014-8-26,87.4,70.8,59.2,65.7,56.6,45.1,98,68,24,30.16,30.10,10,1,10,0.00
2014-8-27,92.5,73.2,58.6,64.8,54.9,41.0,98,62,18,30.10,29.98,9,1,9,0.00
2014-8-28,96.3,77.9,64.8,72.1,61.5,53.4,95,63,25,30.04,29.95,10,1,10,0.00
2014-8-29,85.1,76.6,72.0,72.9,66.2,57.9,97,73,43,30.19,30.04,8,1,8,0.00
2014-8-30,92.7,78.1,68.5,72.0,64.7,54.1,96,68,29,30.25,30.13,8,1,8,0.00
2014-8-31,95.2,80.5,70.5,74.8,65.3,53.8,98,67,26,30.22,30.07,12,1,12,0.00
2014-9-1,97.9,81.5,72.0,75.0,65.3,45.1,98,66,18,30.13,30.04,11,1,11,0.00
2014-9-2,100.8,85.3,71.6,74.3,59.5,45.3,98,51,17,30.07,29.95,13,2,13,0.00
2014-9-3,98.8,80.6,70.7,73.0,63.5,47.7,98,64,19,30.13,29.98,8,1,10,0.83
2014-9-4,88.5,75.4,70.0,78.4,71.3,61.2,98,89,41,30.25,30.10,11,0,11,1.41
2014-9-5,96.3,79.7,70.5,78.3,67.4,49.8,98,74,22,30.22,30.10,8,0,8,0.04
2014-9-6,93.6,79.1,70.5,75.7,66.4,54.5,98,71,28,30.10,29.95,8,1,8,0.00
2014-9-7,79.7,74.1,70.7,72.7,67.5,62.1,98,81,56,30.13,29.98,8,1,8,0.00
2014-9-8,72.1,69.6,68.2,71.6,68.3,61.7,98,96,74,30.13,30.04,8,1,8,1.08
2014-9-9,77.5,71.4,66.6,68.9,66.1,60.8,98,84,58,30.13,30.07,10,2,10,0.37
2014-9-10,84.6,72.6,65.7,70.0,64.4,52.5,98,80,36,30.16,30.04,8,0,8,0.00
2014-9-11,90.3,76.0,65.5,73.4,65.4,57.0,98,75,35,30.07,29.95,15,2,15,0.58
2014-9-12,84.6,74.5,70.2,74.7,66.7,56.8,98,79,40,30.13,29.98,7,1,7,0.00
2014-9-13,81.0,71.7,68.5,72.3,67.6,63.0,98,88,63,30.19,30.07,10,1,10,0.04
2014-9-14,72.3,65.5,60.1,63.7,52.9,45.1,88,65,42,30.27,30.19,8,1,9,0.00
2014-9-15,77.7,67.5,61.9,66.0,58.5,50.4,95,75,41,30.25,30.10,7,0,7,0.00
2014-9-16,88.5,73.7,66.6,68.9,60.9,45.7,98,71,28,30.10,29.95,9,1,9,0.00
2014-9-17,84.0,70.6,65.1,68.7,60.9,49.6,97,75,32,30.01,29.92,6,1,7,0.00
2014-9-18,86.7,70.1,59.7,65.3,55.6,40.5,98,67,22,30.07,29.95,6,1,6,0.00
2014-9-19,81.9,68.9,61.3,61.5,55.4,44.2,94,67,30,30.25,30.07,8,1,8,0.00
2014-9-20,86.7,68.7,58.5,63.1,54.7,41.2,98,68,22,30.25,30.01,8,1,8,0.00
2014-9-21,90.3,73.5,63.3,64.6,57.8,45.3,98,65,22,30.01,29.77,11,2,11,0.00
2014-9-22,78.4,68.8,59.5,63.0,50.0,34.9,86,56,22,30.16,29.86,11,1,11,0.00
2014-9-23,63.5,59.9,55.8,55.2,44.1,37.0,97,58,43,30.33,30.16,10,1,10,0.04
2014-9-24,63.9,59.3,54.7,63.3,58.6,53.2,98,98,95,30.30,30.22,11,2,12,2.53
2014-9-25,69.1,65.1,63.3,64.8,61.6,56.5,98,89,67,30.25,30.19,10,1,10,0.04
2014-9-26,81.7,67.3,60.8,65.3,58.9,45.1,98,80,30,30.22,30.16,8,1,8,0.00
2014-9-27,81.1,65.6,56.3,62.4,54.8,42.4,98,75,27,30.25,30.16,8,1,8,0.00
2014-9-28,83.7,66.3,54.7,65.8,55.5,45.1,98,75,28,30.22,30.10,6,0,7,0.00
2014-9-29,71.4,65.8,62.8,65.5,62.9,56.8,98,91,62,30.10,29.95,5,0,5,0.04
2014-9-30,80.4,66.1,59.4,66.0,60.7,50.0,98,86,36,29.98,29.86,5,0,5,0.00
2014-10-1,83.7,66.1,57.2,68.7,58.2,46.6,98,81,30,30.07,29.92,6,0,6,0.00
2014-10-2,86.2,69.4,59.5,68.9,60.3,49.3,98,78,30,30.13,30.04,6,0,6,0.00
2014-10-3,84.9,72.2,65.1,68.4,60.3,47.8,98,71,30,30.07,29.77,9,1,10,0.00
2014-10-4,76.5,65.6,47.1,68.5,44.1,22.5,97,53,18,29.89,29.68,12,2,12,0.00
2014-10-5,68.5,50.8,39.7,44.4,33.5,23.2,95,59,20,30.04,29.86,8,1,12,0.00
2014-10-6,77.4,57.8,43.3,50.9,39.7,30.6,98,61,21,30.10,30.01,11,1,11,0.00
2014-10-7,81.1,65.0,52.3,57.6,46.8,37.6,98,57,22,30.16,30.01,12,1,12,0.00
2014-10-8,86.5,69.0,57.7,63.9,55.6,42.4,98,68,24,30.07,29.95,11,1,11,0.00
2014-10-9,82.8,63.3,50.0,57.4,44.4,30.6,98,59,19,30.19,30.07,8,1,8,0.00
2014-10-10,85.1,68.2,55.9,66.2,55.9,48.4,98,72,30,30.13,29.98,11,1,11,0.58
2014-10-11,83.7,68.3,58.1,70.5,63.6,56.8,98,88,42,30.13,29.95,10,1,12,0.58
2014-10-12,61.5,59.4,57.0,61.0,58.6,55.0,98,97,93,30.25,30.13,7,0,7,0.00
2014-10-13,82.4,68.6,59.5,68.7,61.3,52.5,98,82,37,30.27,30.16,6,0,6,0.00
2014-10-14,77.2,72.8,70.0,72.7,69.4,64.6,97,89,68,30.16,29.92,13,2,13,0.17
2014-10-15,73.6,65.0,58.1,71.4,62.9,54.1,98,93,65,29.92,29.83,10,1,10,2.24
2014-10-16,72.7,59.5,52.2,59.2,52.3,39.6,98,81,32,29.86,29.77,8,1,8,0.00
2014-10-17,77.0,59.9,50.5,56.5,48.3,34.5,98,73,24,29.92,29.80,11,1,11,0.00
2014-10-18,76.8,61.0,50.5,59.2,45.4,31.5,98,65,22,29.92,29.74,12,2,12,0.00
2014-10-19,70.0,53.4,43.3,45.7,37.6,26.8,97,62,22,30.16,29.92,11,1,11,0.00
2014-10-20,73.9,52.9,40.6,51.4,39.9,26.4,98,71,21,30.19,29.98,9,1,9,0.00
2014-10-21,75.6,60.1,49.6,55.2,44.9,29.8,98,64,23,29.98,29.83,13,1,13,0.00
2014-10-22,68.4,54.5,46.4,43.5,35.6,28.4,85,52,24,30.01,29.92,15,2,15,0.00
2014-10-23,73.4,54.1,43.7,43.5,37.7,29.5,92,61,22,30.04,29.92,12,2,12,0.00
2014-10-24,73.0,54.3,43.0,48.6,39.3,29.3,98,63,22,30.07,29.95,8,1,8,0.00
2014-10-25,73.6,54.1,42.3,48.9,40.6,27.1,98,70,21,30.04,29.86,9,1,9,0.00
2014-10-26,79.5,60.1,45.0,54.1,37.0,23.0,96,49,15,29.98,29.80,11,2,11,0.00
2014-10-27,80.1,54.3,39.2,51.4,38.0,24.6,98,67,15,30.13,29.98,6,0,6,0.00
2014-10-28,86.5,62.1,47.3,61.3,51.5,41.2,98,76,21,30.16,30.04,9,1,9,0.00
2014-10-29,81.1,63.8,56.3,64.0,55.3,42.3,98,80,27,30.04,29.92,12,1,12,0.33
2014-10-30,72.1,55.7,46.6,55.8,43.9,27.0,98,72,22,30.07,29.98,8,1,8,0.00
2014-10-31,62.8,49.7,41.4,46.0,39.9,28.0,98,75,29,30.01,29.77,8,1,8,0.00
2014-11-1,49.8,46.5,41.4,45.9,40.1,28.2,98,80,49,29.92,29.68,15,3,15,0.20
2014-11-2,56.1,42.9,34.0,34.3,19.3,13.5,74,41,20,30.30,29.92,15,2,15,0.00
2014-11-3,67.5,45.0,30.7,33.4,23.2,16.7,81,47,17,30.42,30.30,11,1,11,0.00
2014-11-4,66.9,52.0,38.7,36.5,29.4,22.5,86,47,20,30.33,30.22,11,1,11,0.00
2014-11-5,72.9,55.6,45.1,52.0,41.4,33.1,97,63,26,30.30,30.13,11,1,11,0.00
2014-11-6,66.9,59.6,45.1,63.1,56.1,40.8,98,89,68,30.13,29.71,13,2,13,0.17
2014-11-7,63.5,48.2,38.1,41.2,29.9,20.7,97,55,24,30.07,29.86,13,2,13,0.00
2014-11-8,61.9,44.8,32.2,42.3,29.2,17.8,94,60,25,30.10,29.95,10,1,10,0.00
2014-11-9,61.0,48.6,39.2,48.4,38.2,26.8,98,73,28,30.04,29.95,9,0,9,0.00
2014-11-10,69.3,49.1,36.7,51.4,37.1,27.7,98,72,22,30.16,30.04,7,1,7,0.00
2014-11-11,75.9,58.1,46.0,60.6,51.2,45.0,98,82,36,30.07,29.92,9,1,9,0.00
2014-11-12,79.5,62.0,53.2,60.4,44.4,25.3,98,62,20,30.04,29.92,8,1,8,0.00
2014-11-13,57.9,49.7,44.1,36.7,27.5,24.1,53,42,29,30.10,29.98,6,2,9,0.00
2014-11-14,47.3,37.1,28.6,34.9,18.7,4.1,94,51,25,30.33,30.04,10,3,13,0.00
2014-11-15,50.9,33.1,24.4,14.7,8.6,3.9,59,37,21,30.45,30.33,10,2,10,0.00
2014-11-16,49.1,39.2,26.2,42.4,25.4,13.8,98,62,28,30.39,30.07,5,0,6,0.08
2014-11-17,66.6,52.5,42.1,66.0,49.7,22.1,98,91,46,30.07,29.60,16,2,16,0.37
2014-11-18,41.9,31.6,20.3,22.6,7.0,-0.4,52,36,23,30.30,29.86,12,2,12,0.00
2014-11-19,44.6,30.2,16.7,12.7,5.3,-1.5,65,37,21,30.42,30.22,12,1,12,0.00
2014-11-20,59.9,42.0,27.3,21.6,14.1,6.4,61,34,19,30.22,30.01,16,2,16,0.00
2014-11-21,49.3,35.5,25.0,24.4,11.5,3.7,74,39,21,30.54,30.13,13,2,13,0.00
2014-11-22,57.0,34.9,21.0,18.1,11.0,6.4,72,40,20,30.57,30.30,10,1,10,0.00
2014-11-23,64.6,49.0,33.1,64.0,39.7,15.4,98,72,47,30.30,29.74,13,1,13,0.50
2014-11-24,72.3,65.3,59.9,63.9,57.7,47.7,98,79,45,29.92,29.74,15,3,15,0.00
2014-11-25,64.0,56.9,48.2,60.8,45.3,28.8,95,68,35,30.13,29.89,8,1,8,0.12
2014-11-26,50.9,44.1,35.6,50.4,43.1,34.9,98,96,89,30.07,29.86,14,2,14,1.70
2014-11-27,47.7,40.5,31.6,44.2,36.1,16.3,98,86,45,30.25,30.01,11,1,11,0.13
2014-11-28,48.2,33.4,26.6,23.9,17.0,9.7,87,55,24,30.36,30.25,11,1,11,0.00
2014-11-29,55.4,37.7,26.1,30.0,21.8,15.1,97,60,22,30.33,30.25,14,1,14,0.00
2014-11-30,66.6,47.6,32.7,44.1,32.4,23.9,98,63,24,30.30,30.19,13,2,13,0.00
2014-12-1,75.4,55.4,41.5,51.6,40.4,30.4,98,66,22,30.33,30.25,10,1,10,0.00
2014-12-2,52.0,48.0,45.0,51.1,41.8,30.7,98,81,45,30.45,30.30,11,2,11,0.00
2014-12-3,59.5,50.4,44.8,54.7,48.6,44.2,98,94,67,30.33,30.16,9,1,9,0.00
2014-12-4,55.6,47.7,44.1,51.3,30.2,17.8,98,56,26,30.42,30.27,9,2,9,0.00
2014-12-5,55.2,47.1,40.3,38.1,28.8,22.3,74,50,35,30.48,30.33,7,1,7,0.00
2014-12-6,57.0,51.5,44.1,56.5,47.8,37.8,98,87,67,30.33,30.04,15,1,15,0.12
2014-12-7,52.2,44.1,33.3,51.4,21.1,8.6,98,43,26,30.45,30.10,23,4,23,0.00
2014-12-8,45.0,39.4,33.1,36.9,20.9,9.5,96,50,32,30.42,30.13,11,4,11,0.08
2014-12-9,44.6,40.6,35.6,43.9,40.0,34.9,98,98,96,30.13,29.89,11,2,11,0.67
2014-12-10,52.5,41.5,32.7,41.0,25.8,14.9,98,60,26,29.98,29.89,12,2,12,0.00
2014-12-11,50.9,35.1,25.3,20.3,14.2,6.4,75,45,21,30.10,29.95,13,2,13,0.00
2014-12-12,57.9,38.0,24.6,18.0,12.8,7.9,60,38,19,30.19,30.07,10,1,11,0.00
2014-12-13,64.4,42.8,27.5,20.8,15.2,8.4,63,35,18,30.13,30.01,8,1,11,0.00
2014-12-14,60.8,41.9,27.3,32.5,22.6,12.9,85,50,24,30.07,29.98,10,1,10,0.00
2014-12-15,62.2,43.1,31.8,39.6,30.2,24.1,97,65,25,30.13,30.04,11,1,11,0.00
2014-12-16,50.7,44.2,35.1,50.2,43.6,34.0,98,98,93,30.10,29.89,5,0,7,0.41
2014-12-17,61.9,46.8,36.0,44.4,33.5,23.0,98,67,25,30.10,29.98,11,1,11,0.00
2014-12-18,52.2,40.9,32.5,32.5,19.1,13.1,90,45,24,30.19,30.07,11,2,11,0.00
2014-12-19,53.4,40.7,32.5,29.8,20.4,12.4,73,47,23,30.22,30.10,13,1,13,0.00
2014-12-20,37.8,35.5,33.3,36.1,26.9,16.0,94,72,47,30.30,30.22,10,1,10,0.04
2014-12-21,52.5,41.2,35.1,36.3,28.8,21.4,98,66,31,30.30,30.22,8,1,8,0.00
2014-12-22,39.2,38.0,36.1,38.7,36.0,25.2,98,93,59,30.22,30.04,11,2,11,0.37
2014-12-23,48.0,42.4,38.1,47.3,41.9,37.6,98,98,98,30.10,29.95,5,1,5,0.79
2014-12-24,66.2,57.5,48.2,65.5,56.9,47.7,98,98,95,29.95,29.65,12,1,12,1.37
2014-12-25,64.9,51.7,34.0,63.5,34.0,19.8,95,56,25,30.25,29.68,15,3,15,0.04
2014-12-26,61.9,41.5,29.5,43.2,29.2,20.5,98,70,21,30.36,30.25,8,1,8,0.00
2014-12-27,66.0,46.1,30.0,43.3,29.8,22.1,98,62,20,30.33,30.16,9,1,9,0.00
2014-12-28,60.6,54.0,45.7,56.3,47.4,34.3,98,79,62,30.16,29.98,15,1,15,0.00
2014-12-29,56.1,49.0,40.3,55.6,48.4,39.7,98,98,98,30.19,30.04,8,1,8,0.66
2014-12-30,40.6,36.1,27.3,39.7,33.1,22.6,98,90,51,30.42,30.19,11,2,11,0.04
2014-12-31,47.3,32.8,25.3,32.0,19.9,5.7,98,67,22,30.45,30.33,8,1,9,0.00
2015-1-1,52.9,36.3,22.1,29.8,19.8,9.7,95,57,21,30.33,30.19,12,1,12,0.00
2015-1-2,54.5,47.2,41.0,40.8,30.5,24.4,84,54,33,30.36,30.19,7,1,7,0.00